Starlink 35340

operational
NORAD ID: 66022 Int'l Des: 2025-232 Owner: SPXS Country: US Constellation: starlink
LEOCIRCULAR

About Starlink 35340

Description loading...

Live Position

Loading 3D Globe...

Upcoming Passes

Altitude History

Altitude vs Time

uPlot chart will show altitude changes over time

Two-Line Element Set

1 66022U 25232T 25310.91668981 .00007485 00000-0 14281-3 0 9992
2 66022 53.1592 316.3741 0001141 103.3112 35.7487 15.49248250 3788
Epoch: Nov 6, 2025 • Age: 6 hours

Current Status

Altitude 424.2 km
Velocity 7.66 km/s
Sub-Earth Point 50.81°N, 84.16°W
Launch Date Oct 16, 2025
Age 21 days
Type internet

Technical Details

Classification Payload
Mass 575.00 kg
Dry Mass 530.00 kg
Total Mass 575.00 kg
Length 0.30 m
Diameter 4.10 m
Span 29.00 m
Shape Box + pan
Manufacturer SPXS
Bus Type Starlink V2MO
Phase Status In Orbit
Owner/State SPXS/US

Large Constellations

Loading constellations...